Location: Caltech
(34.1382°N, 118.1253°W)
Time: 18:27:01
(UTC-08:00)

Cosmos 2237 Rocket - Visible Passes

Search period start: 02 December 2016 00:00
Search period end: 12 December 2016 00:00
Orbit: 836 x 848 km, 71.0° (Epoch: 01 December)

Date Brightness Start Highest point End Pass type
(mag) Time Alt. Az. Time Alt. Az. Time Alt. Az.
02 Dec 4.8 03:19:25 11° NE 03:19:25 11° NE 03:19:41 10° NE visible
02 Dec 3.7 05:01:19 19° NNW 05:01:19 19° NNW 05:03:22 10° N visible
03 Dec 4.2 04:47:51 13° N 04:47:51 13° N 04:48:37 10° N visible
